EW4645 Weather Reports


time (UTC)temp
C
wind
direction
speed
KPH
gust
KPH
rain 1hr
cm
rain 24hr
cm
rain mn
cm
humidity
%
barometer
mb
20260503021504 11 94 3.2 14.5 0.00 0.15 0.00 97 1009.4
20260503014504 11 68 4.8 14.5 0.00 0.15 0.00 96 1009.6
20260503011504 11 64 4.8 14.5 0.00 0.15 0.00 96 1009.8
20260503010005 11 73 1.6 8.0 0.00 0.15 0.00 96 1009.9
20260503004504 11 132 0.0 9.7 0.00 0.15 0.00 96 1010.0
20260503001503 11 125 0.0 6.4 0.00 0.15 0.00 96 1010.1
20260503000007 11 124 1.6 9.7 0.00 0.15 0.00 96 1010.2
20260502234504 11 134 1.6 8.0 0.00 0.15 0.00 96 1010.3
20260502233006 11 136 1.6 11.3 0.00 0.15 0.00 96 1010.3
20260502231504 11 149 3.2 9.7 0.00 0.15 0.00 96 1010.4
20260502230009 11 147 3.2 16.1 0.00 0.15 0.00 96 1010.4
20260502224506 11 143 3.2 16.1 0.00 0.15 0.15 96 1010.4
20260502223006 11 148 3.2 14.5 0.00 0.15 0.15 96 1010.5
20260502221504 11 146 4.8 16.1 0.00 0.15 0.15 96 1010.6
20260502220006 11 157 4.8 19.3 0.00 0.15 0.15 96 1010.7
20260502211504 11 148 6.4 20.9 0.00 0.15 0.15 96 1010.6
20260502210006 11 140 6.4 19.3 0.03 0.15 0.15 96 1010.6
20260502204504 11 145 6.4 17.7 0.03 0.15 0.15 96 1010.6
20260502203005 11 144 6.4 24.1 0.03 0.15 0.15 96 1010.6
20260502201504 11 141 6.4 22.5 0.03 0.15 0.15 96 1010.6
20260502200005 11 155 6.4 19.3 0.00 0.15 0.15 96 1010.6
20260502194504 11 166 6.4 17.7 0.00 0.15 0.15 96 1010.6
20260502193006 11 145 8.0 19.3 0.00 0.15 0.15 96 1010.6
20260502191504 11 149 4.8 22.5 0.00 0.15 0.15 96 1010.6
20260502190005 11 146 6.4 24.1 0.03 0.15 0.15 96 1010.7
20260502184504 11 144 6.4 14.5 0.03 0.15 0.15 96 1010.7
20260502183006 11 152 8.0 24.1 0.03 0.15 0.15 96 1010.7
20260502181504 11 143 6.4 16.1 0.03 0.15 0.15 96 1010.8
20260502163006 11 118 8.0 17.7 0.03 0.10 0.10 94 1011.2
20260502161503 11 98 6.4 19.3 0.00 0.08 0.08 94 1011.1
20260502151503 11 138 4.8 19.3 0.03 0.08 0.08 93 1011.8
20260502123005 11 199 12.9 25.7 0.00 0.00 0.00 93 1013.6
20260502121503 11 196 16.1 35.4 0.00 0.00 0.00 93 1013.6
20260502114504 11 195 14.5 29.0 0.00 0.00 0.00 93 1013.9
20260502111503 11 199 12.9 27.4 0.00 0.00 0.00 93 1013.9
20260502104503 11 200 16.1 40.2 0.00 0.00 0.00 93 1014.1
20260502101503 11 199 14.5 33.8 0.00 0.00 0.00 92 1014.2
20260502091504 11 198 6.4 20.9 0.00 0.00 0.00 92 1014.4
20260502070006 11 203 9.7 25.7 0.00 0.00 0.00 93 1014.7
20260502064504 11 198 11.3 29.0 0.00 0.00 0.00 93 1014.7
20260502063005 11 204 11.3 24.1 0.00 0.00 0.00 93 1014.8
20260502060005 11 201 14.5 30.6 0.00 0.00 0.00 94 1014.8
20260502053006 11 204 9.7 29.0 0.00 0.00 0.00 94 1014.7
20260502051503 11 203 11.3 24.1 0.00 0.00 0.00 94 1014.8
20260502050005 11 204 12.9 22.5 0.00 0.00 0.00 94 1014.8
20260502043005 11 204 9.7 22.5 0.00 0.00 0.00 93 1014.9
20260502041505 11 211 6.4 25.7 0.00 0.00 0.00 94 1015.1
20260502034504 11 205 12.9 22.5 0.00 0.00 0.00 94 1015.3
20260502033005 11 212 14.5 30.6 0.00 0.00 0.00 94 1015.4
20260502031503 11 213 4.8 32.2 0.00 0.00 0.00 94 1015.5
20260502030005 11 204 6.4 19.3 0.00 0.00 0.00 94 1015.7
20260502024503 11 208 9.7 20.9 0.00 0.00 0.00 94 1015.7
20260502023005 11 206 11.3 25.7 0.00 0.00 0.00 94 1015.8